Location: Madrid
(40.4167°N, 3.7036°W)
Time: 11:01:06
(UTC+00:00)

ISS - Pass Details

Date: 02 May 2025
Orbit: 416 x 419 km, 51.6° (Epoch: 14 May)

Event Time Altitude Azimuth Distance (km) Brightness Sun altitude
Exits shadow 02:34:01 12° 334° (NNW) 1,370 -0.9 -25.1°
Maximum altitude 02:34:57 13° 352° (N) 1,312 -0.8 -25.0°
Drops below altitude 10° 02:36:39 10° 22° (NNE) 1,496 0.0 -24.8°
Sets 02:39:38 0° 51° (NE) 2,361 1.4 -24.5°
